owner,sensor,date,latitude,longitude,vertical_datum,mass_concentration_of_oxygen_in_sea_water,qcFlag 
TCOON,ioos:station:TCOON:127:1,2019-10-01T00:30:00Z,28.2598,-96.7737,1.0,7.53,11111222 
TCOON,ioos:station:TCOON:127:1,2019-10-01T01:30:00Z,28.2598,-96.7737,1.0,7.82,11111222 
TCOON,ioos:station:TCOON:127:1,2019-10-01T02:30:00Z,28.2598,-96.7737,1.0,7.93,11111222 
TCOON,ioos:station:TCOON:127:1,2019-10-01T03:30:00Z,28.2598,-96.7737,1.0,7.51,11111222 
TCOON,ioos:station:TCOON:127:1,2019-10-01T04:30:00Z,28.2598,-96.7737,1.0,7.54,11111222 
TCOON,ioos:station:TCOON:127:1,2019-10-01T05:30:00Z,28.2598,-96.7737,1.0,7.72,11111222 
TCOON,ioos:station:TCOON:127:1,2019-10-01T06:30:00Z,28.2598,-96.7737,1.0,7.08,11111222 
TCOON,ioos:station:TCOON:127:1,2019-10-01T07:30:00Z,28.2598,-96.7737,1.0,7.12,11111222 
TCOON,ioos:station:TCOON:127:1,2019-10-01T08:30:00Z,28.2598,-96.7737,1.0,7.29,11111222 
TCOON,ioos:station:TCOON:127:1,2019-10-01T09:30:00Z,28.2598,-96.7737,1.0,6.87,11111222 
TCOON,ioos:station:TCOON:127:1,2019-10-01T10:30:00Z,28.2598,-96.7737,1.0,7.16,11111222 
TCOON,ioos:station:TCOON:127:1,2019-10-01T11:30:00Z,28.2598,-96.7737,1.0,7.27,11111222 
TCOON,ioos:station:TCOON:127:1,2019-10-01T12:30:00Z,28.2598,-96.7737,1.0,7.04,11111222 
TCOON,ioos:station:TCOON:127:1,2019-10-01T13:30:00Z,28.2598,-96.7737,1.0,7.03,11111222 
TCOON,ioos:station:TCOON:127:1,2019-10-01T14:30:00Z,28.2598,-96.7737,1.0,6.94,11111222 
TCOON,ioos:station:TCOON:127:1,2019-10-01T15:30:00Z,28.2598,-96.7737,1.0,7.11,11111222 
TCOON,ioos:station:TCOON:127:1,2019-10-01T16:30:00Z,28.2598,-96.7737,1.0,7.04,11111222 
TCOON,ioos:station:TCOON:127:1,2019-10-01T17:30:00Z,28.2598,-96.7737,1.0,7.33,11111222 
TCOON,ioos:station:TCOON:127:1,2019-10-01T18:30:00Z,28.2598,-96.7737,1.0,7.45,11111222 
TCOON,ioos:station:TCOON:127:1,2019-10-01T19:30:00Z,28.2598,-96.7737,1.0,7.78,11111222 
TCOON,ioos:station:TCOON:127:1,2019-10-01T20:30:00Z,28.2598,-96.7737,1.0,8.04,11111222 
TCOON,ioos:station:TCOON:127:1,2019-10-01T21:30:00Z,28.2598,-96.7737,1.0,7.64,11111222 
TCOON,ioos:station:TCOON:127:1,2019-10-01T22:30:00Z,28.2598,-96.7737,1.0,7.94,11111222 
TCOON,ioos:station:TCOON:127:1,2019-10-01T23:30:00Z,28.2598,-96.7737,1.0,7.8,11111222 
TCOON,ioos:station:TCOON:127:1,2019-10-02T00:30:00Z,28.2598,-96.7737,1.0,7.78,11111222 
TCOON,ioos:station:TCOON:127:1,2019-10-02T01:30:00Z,28.2598,-96.7737,1.0,7.69,11111222 
TCOON,ioos:station:TCOON:127:1,2019-10-02T02:30:00Z,28.2598,-96.7737,1.0,7.92,11111222 
TCOON,ioos:station:TCOON:127:1,2019-10-02T03:30:00Z,28.2598,-96.7737,1.0,7.49,11111222 
TCOON,ioos:station:TCOON:127:1,2019-10-02T05:00:00Z,28.2598,-96.7737,1.0,7.57,11111222 
TCOON,ioos:station:TCOON:127:1,2019-10-02T05:30:00Z,28.2598,-96.7737,1.0,7.64,11111222 
TCOON,ioos:station:TCOON:127:1,2019-10-02T06:30:00Z,28.2598,-96.7737,1.0,7.42,11111222 
TCOON,ioos:station:TCOON:127:1,2019-10-02T07:30:00Z,28.2598,-96.7737,1.0,7.33,11111222 
TCOON,ioos:station:TCOON:127:1,2019-10-02T08:30:00Z,28.2598,-96.7737,1.0,6.94,11111222 
TCOON,ioos:station:TCOON:127:1,2019-10-02T09:30:00Z,28.2598,-96.7737,1.0,7.12,11111222 
TCOON,ioos:station:TCOON:127:1,2019-10-02T10:30:00Z,28.2598,-96.7737,1.0,7.03,11111222 
TCOON,ioos:station:TCOON:127:1,2019-10-02T11:30:00Z,28.2598,-96.7737,1.0,6.54,11111222 
TCOON,ioos:station:TCOON:127:1,2019-10-02T12:30:00Z,28.2598,-96.7737,1.0,6.58,11111222 
TCOON,ioos:station:TCOON:127:1,2019-10-02T13:30:00Z,28.2598,-96.7737,1.0,6.82,11111222 
TCOON,ioos:station:TCOON:127:1,2019-10-02T14:30:00Z,28.2598,-96.7737,1.0,6.65,11111222 
TCOON,ioos:station:TCOON:127:1,2019-10-02T15:30:00Z,28.2598,-96.7737,1.0,6.77,11111222 
TCOON,ioos:station:TCOON:127:1,2019-10-02T16:30:00Z,28.2598,-96.7737,1.0,7.31,11111222 
TCOON,ioos:station:TCOON:127:1,2019-10-02T17:30:00Z,28.2598,-96.7737,1.0,7.41,11111222 
TCOON,ioos:station:TCOON:127:1,2019-10-02T18:30:00Z,28.2598,-96.7737,1.0,7.68,11111222 
TCOON,ioos:station:TCOON:127:1,2019-10-02T19:30:00Z,28.2598,-96.7737,1.0,7.65,11111222 
TCOON,ioos:station:TCOON:127:1,2019-10-02T20:30:00Z,28.2598,-96.7737,1.0,7.39,11111222 
TCOON,ioos:station:TCOON:127:1,2019-10-02T21:30:00Z,28.2598,-96.7737,1.0,7.93,11111222 
TCOON,ioos:station:TCOON:127:1,2019-10-02T22:30:00Z,28.2598,-96.7737,1.0,7.58,11111222 
TCOON,ioos:station:TCOON:127:1,2019-10-02T23:30:00Z,28.2598,-96.7737,1.0,7.81,11111222 
TCOON,ioos:station:TCOON:127:1,2019-10-03T00:30:00Z,28.2598,-96.7737,1.0,7.62,11111222 
TCOON,ioos:station:TCOON:127:1,2019-10-03T01:30:00Z,28.2598,-96.7737,1.0,7.92,11111222 
TCOON,ioos:station:TCOON:127:1,2019-10-03T02:30:00Z,28.2598,-96.7737,1.0,7.58,11111222 
TCOON,ioos:station:TCOON:127:1,2019-10-03T03:30:00Z,28.2598,-96.7737,1.0,7.34,11111222 
TCOON,ioos:station:TCOON:127:1,2019-10-03T04:30:00Z,28.2598,-96.7737,1.0,7.58,11111222 
TCOON,ioos:station:TCOON:127:1,2019-10-03T05:30:00Z,28.2598,-96.7737,1.0,7.1,11111222 
TCOON,ioos:station:TCOON:127:1,2019-10-03T06:30:00Z,28.2598,-96.7737,1.0,7.19,11111222 
TCOON,ioos:station:TCOON:127:1,2019-10-03T07:30:00Z,28.2598,-96.7737,1.0,7.31,11111222 
TCOON,ioos:station:TCOON:127:1,2019-10-03T08:30:00Z,28.2598,-96.7737,1.0,7.19,11111222 
TCOON,ioos:station:TCOON:127:1,2019-10-03T09:30:00Z,28.2598,-96.7737,1.0,7.0,11111222 
TCOON,ioos:station:TCOON:127:1,2019-10-03T10:30:00Z,28.2598,-96.7737,1.0,6.7,11111222 
TCOON,ioos:station:TCOON:127:1,2019-10-03T11:30:00Z,28.2598,-96.7737,1.0,7.19,11111222 
TCOON,ioos:station:TCOON:127:1,2019-10-03T12:30:00Z,28.2598,-96.7737,1.0,6.5,11111222 
TCOON,ioos:station:TCOON:127:1,2019-10-03T13:30:00Z,28.2598,-96.7737,1.0,6.65,11111222 
TCOON,ioos:station:TCOON:127:1,2019-10-03T14:30:00Z,28.2598,-96.7737,1.0,7.16,11111222 
TCOON,ioos:station:TCOON:127:1,2019-10-03T15:30:00Z,28.2598,-96.7737,1.0,6.78,11111222 
TCOON,ioos:station:TCOON:127:1,2019-10-03T16:30:00Z,28.2598,-96.7737,1.0,7.08,11111222 
TCOON,ioos:station:TCOON:127:1,2019-10-03T17:30:00Z,28.2598,-96.7737,1.0,7.52,11111222 
TCOON,ioos:station:TCOON:127:1,2019-10-03T18:30:00Z,28.2598,-96.7737,1.0,7.43,11111222 
TCOON,ioos:station:TCOON:127:1,2019-10-03T19:30:00Z,28.2598,-96.7737,1.0,7.96,11111222 
TCOON,ioos:station:TCOON:127:1,2019-10-03T20:30:00Z,28.2598,-96.7737,1.0,7.76,11111222 
TCOON,ioos:station:TCOON:127:1,2019-10-03T21:30:00Z,28.2598,-96.7737,1.0,7.54,11111222 
TCOON,ioos:station:TCOON:127:1,2019-10-03T22:30:00Z,28.2598,-96.7737,1.0,7.41,11111222 
TCOON,ioos:station:TCOON:127:1,2019-10-03T23:30:00Z,28.2598,-96.7737,1.0,7.62,11111222 
TCOON,ioos:station:TCOON:127:1,2019-10-04T00:30:00Z,28.2598,-96.7737,1.0,7.55,11111222 
TCOON,ioos:station:TCOON:127:1,2019-10-04T01:30:00Z,28.2598,-96.7737,1.0,7.2,11111222 
TCOON,ioos:station:TCOON:127:1,2019-10-04T02:30:00Z,28.2598,-96.7737,1.0,7.51,11111222 
TCOON,ioos:station:TCOON:127:1,2019-10-04T03:30:00Z,28.2598,-96.7737,1.0,6.74,11111222 
TCOON,ioos:station:TCOON:127:1,2019-10-04T04:30:00Z,28.2598,-96.7737,1.0,7.27,11111222 
TCOON,ioos:station:TCOON:127:1,2019-10-04T05:30:00Z,28.2598,-96.7737,1.0,7.17,11111222 
TCOON,ioos:station:TCOON:127:1,2019-10-04T06:30:00Z,28.2598,-96.7737,1.0,6.9,11111222 
TCOON,ioos:station:TCOON:127:1,2019-10-04T07:30:00Z,28.2598,-96.7737,1.0,6.79,11111222 
TCOON,ioos:station:TCOON:127:1,2019-10-04T08:30:00Z,28.2598,-96.7737,1.0,6.57,11111222 
TCOON,ioos:station:TCOON:127:1,2019-10-04T09:30:00Z,28.2598,-96.7737,1.0,6.78,11111222 
TCOON,ioos:station:TCOON:127:1,2019-10-04T10:30:00Z,28.2598,-96.7737,1.0,6.71,11111222 
TCOON,ioos:station:TCOON:127:1,2019-10-04T11:30:00Z,28.2598,-96.7737,1.0,6.62,11111222 
TCOON,ioos:station:TCOON:127:1,2019-10-04T12:30:00Z,28.2598,-96.7737,1.0,6.58,11111222 
TCOON,ioos:station:TCOON:127:1,2019-10-04T13:30:00Z,28.2598,-96.7737,1.0,6.68,11111222 
TCOON,ioos:station:TCOON:127:1,2019-10-04T14:30:00Z,28.2598,-96.7737,1.0,6.67,11111222 
TCOON,ioos:station:TCOON:127:1,2019-10-04T15:30:00Z,28.2598,-96.7737,1.0,6.9,11111222 
TCOON,ioos:station:TCOON:127:1,2019-10-04T16:30:00Z,28.2598,-96.7737,1.0,7.34,11111222 
TCOON,ioos:station:TCOON:127:1,2019-10-04T18:00:00Z,28.2598,-96.7737,1.0,7.05,11111222 
TCOON,ioos:station:TCOON:127:1,2019-10-04T19:00:00Z,28.2598,-96.7737,1.0,6.89,11111222 
TCOON,ioos:station:TCOON:127:1,2019-10-04T20:00:00Z,28.2598,-96.7737,1.0,7.75,11111222 
TCOON,ioos:station:TCOON:127:1,2019-10-04T20:30:00Z,28.2598,-96.7737,1.0,7.51,11111222 
TCOON,ioos:station:TCOON:127:1,2019-10-04T21:30:00Z,28.2598,-96.7737,1.0,7.69,11111222 
TCOON,ioos:station:TCOON:127:1,2019-10-04T22:30:00Z,28.2598,-96.7737,1.0,7.9,11111222 
TCOON,ioos:station:TCOON:127:1,2019-10-04T23:30:00Z,28.2598,-96.7737,1.0,7.48,11111222 
TCOON,ioos:station:TCOON:127:1,2019-10-05T00:30:00Z,28.2598,-96.7737,1.0,7.42,11111222 
TCOON,ioos:station:TCOON:127:1,2019-10-05T01:30:00Z,28.2598,-96.7737,1.0,7.42,11111222 
TCOON,ioos:station:TCOON:127:1,2019-10-05T02:30:00Z,28.2598,-96.7737,1.0,7.34,11111222 
TCOON,ioos:station:TCOON:127:1,2019-10-05T03:30:00Z,28.2598,-96.7737,1.0,7.6,11111222 
TCOON,ioos:station:TCOON:127:1,2019-10-05T04:30:00Z,28.2598,-96.7737,1.0,7.56,11111222 
TCOON,ioos:station:TCOON:127:1,2019-10-05T05:30:00Z,28.2598,-96.7737,1.0,6.97,11111222 
TCOON,ioos:station:TCOON:127:1,2019-10-05T06:30:00Z,28.2598,-96.7737,1.0,6.79,11111222 
TCOON,ioos:station:TCOON:127:1,2019-10-05T07:30:00Z,28.2598,-96.7737,1.0,6.82,11111222 
TCOON,ioos:station:TCOON:127:1,2019-10-05T08:30:00Z,28.2598,-96.7737,1.0,6.93,11111222 
TCOON,ioos:station:TCOON:127:1,2019-10-05T09:30:00Z,28.2598,-96.7737,1.0,6.5,11111222 
TCOON,ioos:station:TCOON:127:1,2019-10-05T10:30:00Z,28.2598,-96.7737,1.0,6.14,11111222 
TCOON,ioos:station:TCOON:127:1,2019-10-05T11:30:00Z,28.2598,-96.7737,1.0,6.33,11111222 
TCOON,ioos:station:TCOON:127:1,2019-10-05T12:30:00Z,28.2598,-96.7737,1.0,6.46,11111222 
TCOON,ioos:station:TCOON:127:1,2019-10-05T13:30:00Z,28.2598,-96.7737,1.0,6.34,11111222 
TCOON,ioos:station:TCOON:127:1,2019-10-05T14:30:00Z,28.2598,-96.7737,1.0,6.64,11111222 
TCOON,ioos:station:TCOON:127:1,2019-10-05T15:30:00Z,28.2598,-96.7737,1.0,6.48,11111222 
TCOON,ioos:station:TCOON:127:1,2019-10-05T16:30:00Z,28.2598,-96.7737,1.0,6.41,11111222 
TCOON,ioos:station:TCOON:127:1,2019-10-05T17:30:00Z,28.2598,-96.7737,1.0,6.32,11111222 
TCOON,ioos:station:TCOON:127:1,2019-10-05T18:30:00Z,28.2598,-96.7737,1.0,6.32,11111222 
TCOON,ioos:station:TCOON:127:1,2019-10-05T19:30:00Z,28.2598,-96.7737,1.0,6.38,11111222 
TCOON,ioos:station:TCOON:127:1,2019-10-05T20:30:00Z,28.2598,-96.7737,1.0,6.74,11111222 
TCOON,ioos:station:TCOON:127:1,2019-10-05T21:30:00Z,28.2598,-96.7737,1.0,6.7,11111222 
TCOON,ioos:station:TCOON:127:1,2019-10-05T22:30:00Z,28.2598,-96.7737,1.0,7.12,11111222 
TCOON,ioos:station:TCOON:127:1,2019-10-05T23:30:00Z,28.2598,-96.7737,1.0,6.73,11111222 
TCOON,ioos:station:TCOON:127:1,2019-10-06T00:30:00Z,28.2598,-96.7737,1.0,7.01,11111222 
TCOON,ioos:station:TCOON:127:1,2019-10-06T01:30:00Z,28.2598,-96.7737,1.0,7.23,11111222 
TCOON,ioos:station:TCOON:127:1,2019-10-06T02:30:00Z,28.2598,-96.7737,1.0,6.75,11111222 
TCOON,ioos:station:TCOON:127:1,2019-10-06T03:30:00Z,28.2598,-96.7737,1.0,6.96,11111222 
TCOON,ioos:station:TCOON:127:1,2019-10-06T04:30:00Z,28.2598,-96.7737,1.0,7.09,11111222 
TCOON,ioos:station:TCOON:127:1,2019-10-06T05:30:00Z,28.2598,-96.7737,1.0,7.01,11111222 
TCOON,ioos:station:TCOON:127:1,2019-10-06T06:30:00Z,28.2598,-96.7737,1.0,6.57,11111222 
TCOON,ioos:station:TCOON:127:1,2019-10-06T07:30:00Z,28.2598,-96.7737,1.0,6.86,11111222 
TCOON,ioos:station:TCOON:127:1,2019-10-06T08:30:00Z,28.2598,-96.7737,1.0,6.86,11111222 
TCOON,ioos:station:TCOON:127:1,2019-10-06T09:30:00Z,28.2598,-96.7737,1.0,6.47,11111222 
TCOON,ioos:station:TCOON:127:1,2019-10-06T10:30:00Z,28.2598,-96.7737,1.0,6.39,11111222 
TCOON,ioos:station:TCOON:127:1,2019-10-06T11:30:00Z,28.2598,-96.7737,1.0,6.61,11111222 
TCOON,ioos:station:TCOON:127:1,2019-10-06T12:30:00Z,28.2598,-96.7737,1.0,6.4,11111222 
TCOON,ioos:station:TCOON:127:1,2019-10-06T13:30:00Z,28.2598,-96.7737,1.0,6.21,11111222 
TCOON,ioos:station:TCOON:127:1,2019-10-06T14:30:00Z,28.2598,-96.7737,1.0,6.23,11111222 
TCOON,ioos:station:TCOON:127:1,2019-10-06T15:30:00Z,28.2598,-96.7737,1.0,5.44,11111222 
TCOON,ioos:station:TCOON:127:1,2019-10-06T16:30:00Z,28.2598,-96.7737,1.0,6.34,11111222 
TCOON,ioos:station:TCOON:127:1,2019-10-06T17:30:00Z,28.2598,-96.7737,1.0,6.48,11111222 
TCOON,ioos:station:TCOON:127:1,2019-10-06T18:30:00Z,28.2598,-96.7737,1.0,6.09,11111222 
TCOON,ioos:station:TCOON:127:1,2019-10-06T19:30:00Z,28.2598,-96.7737,1.0,5.66,11111222 
TCOON,ioos:station:TCOON:127:1,2019-10-06T20:30:00Z,28.2598,-96.7737,1.0,6.92,11111222 
TCOON,ioos:station:TCOON:127:1,2019-10-06T21:30:00Z,28.2598,-96.7737,1.0,5.93,11111222 
TCOON,ioos:station:TCOON:127:1,2019-10-06T22:30:00Z,28.2598,-96.7737,1.0,6.72,11111222 
TCOON,ioos:station:TCOON:127:1,2019-10-06T23:30:00Z,28.2598,-96.7737,1.0,6.45,11111222 
TCOON,ioos:station:TCOON:127:1,2019-10-07T00:30:00Z,28.2598,-96.7737,1.0,6.63,11111222 
TCOON,ioos:station:TCOON:127:1,2019-10-07T01:30:00Z,28.2598,-96.7737,1.0,6.95,11111222 
TCOON,ioos:station:TCOON:127:1,2019-10-07T02:30:00Z,28.2598,-96.7737,1.0,8.17,11111222 
TCOON,ioos:station:TCOON:127:1,2019-10-07T03:30:00Z,28.2598,-96.7737,1.0,7.51,11111222 
TCOON,ioos:station:TCOON:127:1,2019-10-07T04:30:00Z,28.2598,-96.7737,1.0,7.28,11111222 
TCOON,ioos:station:TCOON:127:1,2019-10-07T05:30:00Z,28.2598,-96.7737,1.0,8.45,11111222 
TCOON,ioos:station:TCOON:127:1,2019-10-07T06:30:00Z,28.2598,-96.7737,1.0,6.91,11111222 
TCOON,ioos:station:TCOON:127:1,2019-10-07T07:30:00Z,28.2598,-96.7737,1.0,8.33,11111222 
TCOON,ioos:station:TCOON:127:1,2019-10-07T08:30:00Z,28.2598,-96.7737,1.0,7.33,11111222 
TCOON,ioos:station:TCOON:127:1,2019-10-07T09:30:00Z,28.2598,-96.7737,1.0,8.16,11111222 
TCOON,ioos:station:TCOON:127:1,2019-10-07T10:30:00Z,28.2598,-96.7737,1.0,8.05,11111222 
TCOON,ioos:station:TCOON:127:1,2019-10-07T11:30:00Z,28.2598,-96.7737,1.0,8.38,11111222 
TCOON,ioos:station:TCOON:127:1,2019-10-07T12:30:00Z,28.2598,-96.7737,1.0,8.83,11111222 
TCOON,ioos:station:TCOON:127:1,2019-10-07T15:00:00Z,28.2598,-96.7737,1.0,6.42,11111222 
TCOON,ioos:station:TCOON:127:1,2019-10-07T15:30:00Z,28.2598,-96.7737,1.0,6.56,11111222 
TCOON,ioos:station:TCOON:127:1,2019-10-07T16:30:00Z,28.2598,-96.7737,1.0,6.82,11111222 
TCOON,ioos:station:TCOON:127:1,2019-10-07T17:30:00Z,28.2598,-96.7737,1.0,7.04,11111222 
TCOON,ioos:station:TCOON:127:1,2019-10-07T18:30:00Z,28.2598,-96.7737,1.0,7.29,11111222 
TCOON,ioos:station:TCOON:127:1,2019-10-07T19:30:00Z,28.2598,-96.7737,1.0,7.42,11111222 
TCOON,ioos:station:TCOON:127:1,2019-10-07T20:30:00Z,28.2598,-96.7737,1.0,7.7,11111222 
TCOON,ioos:station:TCOON:127:1,2019-10-07T21:30:00Z,28.2598,-96.7737,1.0,7.81,11111222 
TCOON,ioos:station:TCOON:127:1,2019-10-07T22:30:00Z,28.2598,-96.7737,1.0,7.78,11111222 
TCOON,ioos:station:TCOON:127:1,2019-10-07T23:30:00Z,28.2598,-96.7737,1.0,7.72,11111222 
TCOON,ioos:station:TCOON:127:1,2019-10-08T00:30:00Z,28.2598,-96.7737,1.0,7.49,11111222 
TCOON,ioos:station:TCOON:127:1,2019-10-08T01:30:00Z,28.2598,-96.7737,1.0,7.17,11111222 
TCOON,ioos:station:TCOON:127:1,2019-10-08T02:30:00Z,28.2598,-96.7737,1.0,6.98,11111222 
TCOON,ioos:station:TCOON:127:1,2019-10-08T03:30:00Z,28.2598,-96.7737,1.0,6.85,11111222 
TCOON,ioos:station:TCOON:127:1,2019-10-08T04:30:00Z,28.2598,-96.7737,1.0,6.59,11111222 
TCOON,ioos:station:TCOON:127:1,2019-10-08T05:30:00Z,28.2598,-96.7737,1.0,6.72,11111222 
TCOON,ioos:station:TCOON:127:1,2019-10-08T06:30:00Z,28.2598,-96.7737,1.0,6.78,11111222 
TCOON,ioos:station:TCOON:127:1,2019-10-08T07:30:00Z,28.2598,-96.7737,1.0,6.78,11111222 
TCOON,ioos:station:TCOON:127:1,2019-10-08T08:30:00Z,28.2598,-96.7737,1.0,6.72,11111222 
TCOON,ioos:station:TCOON:127:1,2019-10-08T09:30:00Z,28.2598,-96.7737,1.0,6.66,11111222 
TCOON,ioos:station:TCOON:127:1,2019-10-08T10:30:00Z,28.2598,-96.7737,1.0,6.52,11111222 
TCOON,ioos:station:TCOON:127:1,2019-10-08T11:30:00Z,28.2598,-96.7737,1.0,6.54,11111222 
TCOON,ioos:station:TCOON:127:1,2019-10-08T12:30:00Z,28.2598,-96.7737,1.0,6.39,11111222 
TCOON,ioos:station:TCOON:127:1,2019-10-08T13:30:00Z,28.2598,-96.7737,1.0,6.38,11111222 
TCOON,ioos:station:TCOON:127:1,2019-10-08T15:00:00Z,28.2598,-96.7737,1.0,6.56,11111222 
TCOON,ioos:station:TCOON:127:1,2019-10-08T15:30:00Z,28.2598,-96.7737,1.0,6.76,11111222 
TCOON,ioos:station:TCOON:127:1,2019-10-08T16:30:00Z,28.2598,-96.7737,1.0,6.89,11111222 
TCOON,ioos:station:TCOON:127:1,2019-10-08T17:30:00Z,28.2598,-96.7737,1.0,7.08,11111222 
TCOON,ioos:station:TCOON:127:1,2019-10-08T19:00:00Z,28.2598,-96.7737,1.0,7.55,11111222 
TCOON,ioos:station:TCOON:127:1,2019-10-08T20:00:00Z,28.2598,-96.7737,1.0,7.9,11111222 
TCOON,ioos:station:TCOON:127:1,2019-10-08T21:00:00Z,28.2598,-96.7737,1.0,8.07,11111222 
TCOON,ioos:station:TCOON:127:1,2019-10-08T21:30:00Z,28.2598,-96.7737,1.0,8.17,11111222 
TCOON,ioos:station:TCOON:127:1,2019-10-08T22:30:00Z,28.2598,-96.7737,1.0,7.91,11111222 
TCOON,ioos:station:TCOON:127:1,2019-10-08T23:30:00Z,28.2598,-96.7737,1.0,8.06,11111222 
TCOON,ioos:station:TCOON:127:1,2019-10-09T00:30:00Z,28.2598,-96.7737,1.0,8.12,11111222 
TCOON,ioos:station:TCOON:127:1,2019-10-09T01:30:00Z,28.2598,-96.7737,1.0,7.89,11111222 
TCOON,ioos:station:TCOON:127:1,2019-10-09T03:00:00Z,28.2598,-96.7737,1.0,7.66,11111222 
TCOON,ioos:station:TCOON:127:1,2019-10-09T03:30:00Z,28.2598,-96.7737,1.0,7.56,11111222 
TCOON,ioos:station:TCOON:127:1,2019-10-09T04:30:00Z,28.2598,-96.7737,1.0,7.43,11111222 
TCOON,ioos:station:TCOON:127:1,2019-10-09T05:30:00Z,28.2598,-96.7737,1.0,7.38,11111222 
TCOON,ioos:station:TCOON:127:1,2019-10-09T06:30:00Z,28.2598,-96.7737,1.0,7.22,11111222 
TCOON,ioos:station:TCOON:127:1,2019-10-09T07:30:00Z,28.2598,-96.7737,1.0,7.18,11111222 
TCOON,ioos:station:TCOON:127:1,2019-10-09T08:30:00Z,28.2598,-96.7737,1.0,7.11,11111222 
TCOON,ioos:station:TCOON:127:1,2019-10-09T09:30:00Z,28.2598,-96.7737,1.0,7.04,11111222 
TCOON,ioos:station:TCOON:127:1,2019-10-09T10:30:00Z,28.2598,-96.7737,1.0,7.02,11111222 
TCOON,ioos:station:TCOON:127:1,2019-10-09T11:30:00Z,28.2598,-96.7737,1.0,6.88,11111222 
TCOON,ioos:station:TCOON:127:1,2019-10-09T12:30:00Z,28.2598,-96.7737,1.0,6.72,11111222 
TCOON,ioos:station:TCOON:127:1,2019-10-09T13:30:00Z,28.2598,-96.7737,1.0,6.61,11111222 
TCOON,ioos:station:TCOON:127:1,2019-10-09T14:30:00Z,28.2598,-96.7737,1.0,6.68,11111222 
TCOON,ioos:station:TCOON:127:1,2019-10-09T15:30:00Z,28.2598,-96.7737,1.0,6.84,11111222 
TCOON,ioos:station:TCOON:127:1,2019-10-09T16:30:00Z,28.2598,-96.7737,1.0,7.05,11111222 
TCOON,ioos:station:TCOON:127:1,2019-10-09T17:30:00Z,28.2598,-96.7737,1.0,7.27,11111222 
TCOON,ioos:station:TCOON:127:1,2019-10-09T18:30:00Z,28.2598,-96.7737,1.0,7.45,11111222 
TCOON,ioos:station:TCOON:127:1,2019-10-09T19:30:00Z,28.2598,-96.7737,1.0,7.6,11111222 
TCOON,ioos:station:TCOON:127:1,2019-10-09T20:30:00Z,28.2598,-96.7737,1.0,7.7,11111222 
TCOON,ioos:station:TCOON:127:1,2019-10-09T21:30:00Z,28.2598,-96.7737,1.0,7.69,11111222 
TCOON,ioos:station:TCOON:127:1,2019-10-09T22:30:00Z,28.2598,-96.7737,1.0,7.61,11111222 
TCOON,ioos:station:TCOON:127:1,2019-10-10T02:00:00Z,28.2598,-96.7737,1.0,7.3,11111222 
TCOON,ioos:station:TCOON:127:1,2019-10-10T02:30:00Z,28.2598,-96.7737,1.0,7.24,11111222 
TCOON,ioos:station:TCOON:127:1,2019-10-10T03:30:00Z,28.2598,-96.7737,1.0,7.12,11111222 
TCOON,ioos:station:TCOON:127:1,2019-10-10T04:30:00Z,28.2598,-96.7737,1.0,7.03,11111222 
TCOON,ioos:station:TCOON:127:1,2019-10-10T06:00:00Z,28.2598,-96.7737,1.0,6.91,11111222 
TCOON,ioos:station:TCOON:127:1,2019-10-10T06:30:00Z,28.2598,-96.7737,1.0,6.85,11111222 
TCOON,ioos:station:TCOON:127:1,2019-10-10T07:30:00Z,28.2598,-96.7737,1.0,6.78,11111222 
TCOON,ioos:station:TCOON:127:1,2019-10-10T08:30:00Z,28.2598,-96.7737,1.0,6.75,11111222 
TCOON,ioos:station:TCOON:127:1,2019-10-10T09:30:00Z,28.2598,-96.7737,1.0,6.73,11111222 
TCOON,ioos:station:TCOON:127:1,2019-10-10T10:30:00Z,28.2598,-96.7737,1.0,6.6,11111222 
TCOON,ioos:station:TCOON:127:1,2019-10-10T11:30:00Z,28.2598,-96.7737,1.0,6.55,11111222 
TCOON,ioos:station:TCOON:127:1,2019-10-10T12:30:00Z,28.2598,-96.7737,1.0,6.51,11111222 
TCOON,ioos:station:TCOON:127:1,2019-10-10T13:30:00Z,28.2598,-96.7737,1.0,6.5,11111222 
TCOON,ioos:station:TCOON:127:1,2019-10-10T14:30:00Z,28.2598,-96.7737,1.0,6.52,11111222 
TCOON,ioos:station:TCOON:127:1,2019-10-10T15:30:00Z,28.2598,-96.7737,1.0,6.55,11111222 
TCOON,ioos:station:TCOON:127:1,2019-10-10T16:30:00Z,28.2598,-96.7737,1.0,6.59,11111222 
TCOON,ioos:station:TCOON:127:1,2019-10-10T17:30:00Z,28.2598,-96.7737,1.0,6.65,11111222 
TCOON,ioos:station:TCOON:127:1,2019-10-10T18:30:00Z,28.2598,-96.7737,1.0,6.82,11111222 
TCOON,ioos:station:TCOON:127:1,2019-10-10T19:30:00Z,28.2598,-96.7737,1.0,6.9,11111222 
TCOON,ioos:station:TCOON:127:1,2019-10-10T20:30:00Z,28.2598,-96.7737,1.0,7.0,11111222 
TCOON,ioos:station:TCOON:127:1,2019-10-10T21:30:00Z,28.2598,-96.7737,1.0,7.02,11111222 
TCOON,ioos:station:TCOON:127:1,2019-10-10T22:30:00Z,28.2598,-96.7737,1.0,7.02,11111222 
TCOON,ioos:station:TCOON:127:1,2019-10-10T23:30:00Z,28.2598,-96.7737,1.0,7.1,11111222 
TCOON,ioos:station:TCOON:127:1,2019-10-11T00:30:00Z,28.2598,-96.7737,1.0,6.99,11111222 
TCOON,ioos:station:TCOON:127:1,2019-10-11T01:30:00Z,28.2598,-96.7737,1.0,6.91,11111222 
TCOON,ioos:station:TCOON:127:1,2019-10-11T02:30:00Z,28.2598,-96.7737,1.0,6.81,11111222 
TCOON,ioos:station:TCOON:127:1,2019-10-11T03:30:00Z,28.2598,-96.7737,1.0,6.79,11111222 
TCOON,ioos:station:TCOON:127:1,2019-10-11T04:30:00Z,28.2598,-96.7737,1.0,6.71,11111222 
TCOON,ioos:station:TCOON:127:1,2019-10-11T05:30:00Z,28.2598,-96.7737,1.0,6.63,11111222 
TCOON,ioos:station:TCOON:127:1,2019-10-11T06:30:00Z,28.2598,-96.7737,1.0,6.58,11111222 
TCOON,ioos:station:TCOON:127:1,2019-10-11T07:30:00Z,28.2598,-96.7737,1.0,6.56,11111222 
TCOON,ioos:station:TCOON:127:1,2019-10-11T08:30:00Z,28.2598,-96.7737,1.0,6.53,11111222 
TCOON,ioos:station:TCOON:127:1,2019-10-11T09:30:00Z,28.2598,-96.7737,1.0,6.58,11111222 
TCOON,ioos:station:TCOON:127:1,2019-10-11T10:30:00Z,28.2598,-96.7737,1.0,6.52,11111222 
TCOON,ioos:station:TCOON:127:1,2019-10-11T11:30:00Z,28.2598,-96.7737,1.0,6.54,11111222 
TCOON,ioos:station:TCOON:127:1,2019-10-11T12:30:00Z,28.2598,-96.7737,1.0,6.38,11111222 
TCOON,ioos:station:TCOON:127:1,2019-10-11T13:30:00Z,28.2598,-96.7737,1.0,6.28,11111222 
TCOON,ioos:station:TCOON:127:1,2019-10-11T15:00:00Z,28.2598,-96.7737,1.0,6.6,11111222 
TCOON,ioos:station:TCOON:127:1,2019-10-11T16:00:00Z,28.2598,-96.7737,1.0,6.6,11111222 
TCOON,ioos:station:TCOON:127:1,2019-10-11T17:00:00Z,28.2598,-96.7737,1.0,6.62,11111222 
TCOON,ioos:station:TCOON:127:1,2019-10-11T18:00:00Z,28.2598,-96.7737,1.0,6.63,11111222 
TCOON,ioos:station:TCOON:127:1,2019-10-11T18:30:00Z,28.2598,-96.7737,1.0,6.68,11111222 
TCOON,ioos:station:TCOON:127:1,2019-10-11T19:30:00Z,28.2598,-96.7737,1.0,6.69,11111222 
TCOON,ioos:station:TCOON:127:1,2019-10-11T20:30:00Z,28.2598,-96.7737,1.0,6.69,11111222 
TCOON,ioos:station:TCOON:127:1,2019-10-11T21:30:00Z,28.2598,-96.7737,1.0,6.74,11111222 
TCOON,ioos:station:TCOON:127:1,2019-10-11T22:30:00Z,28.2598,-96.7737,1.0,6.75,11111222 
TCOON,ioos:station:TCOON:127:1,2019-10-11T23:30:00Z,28.2598,-96.7737,1.0,6.75,11111222 
TCOON,ioos:station:TCOON:127:1,2019-10-12T00:30:00Z,28.2598,-96.7737,1.0,6.79,11111222 
TCOON,ioos:station:TCOON:127:1,2019-10-12T01:30:00Z,28.2598,-96.7737,1.0,6.82,11111222 
TCOON,ioos:station:TCOON:127:1,2019-10-12T02:30:00Z,28.2598,-96.7737,1.0,6.9,11111222 
TCOON,ioos:station:TCOON:127:1,2019-10-12T03:30:00Z,28.2598,-96.7737,1.0,6.94,11111222 
TCOON,ioos:station:TCOON:127:1,2019-10-12T04:30:00Z,28.2598,-96.7737,1.0,6.95,11111222 
TCOON,ioos:station:TCOON:127:1,2019-10-12T06:00:00Z,28.2598,-96.7737,1.0,7.02,11111222 
TCOON,ioos:station:TCOON:127:1,2019-10-12T06:30:00Z,28.2598,-96.7737,1.0,7.1,11111222 
TCOON,ioos:station:TCOON:127:1,2019-10-12T07:30:00Z,28.2598,-96.7737,1.0,7.1,11111222 
TCOON,ioos:station:TCOON:127:1,2019-10-12T08:30:00Z,28.2598,-96.7737,1.0,7.12,11111222 
TCOON,ioos:station:TCOON:127:1,2019-10-12T09:30:00Z,28.2598,-96.7737,1.0,7.18,11111222 